Greenville, ME

9:53 PM EDT on September 20, 2017 (GMT -0400)
Greenville

Weather History for KGNR - March, 2014

Change the Weather History Date:

Saturday, March 29, 2014

  Actual Average (KMLT) Record (KMLT)
Temperature  
Mean Temperature 38 °F -  
Max Temperature 42 °F 43 °F 73 °F (1945)
Min Temperature 34 °F 24 °F -12 °F (1923)
Degree Days  
Heating Degree Days 28    
Moisture  
Dew Point 27 °F    
Average Humidity 70    
Maximum Humidity 96    
Minimum Humidity 53    
Precipitation  
Precipitation 0.00 in - - ()
Sea Level Pressure  
Sea Level Pressure 30.18 in    
Wind  
Wind Speed 7 mph (North)    
Max Wind Speed 15 mph    
Max Gust Speed 22 mph    
Averages and records for this station are not official NWS values.
T = Trace of Precipitation, MM = Missing Value Source: NWS Daily Summary

Daily Weather History Graph

Daily Weather History Graph

Search for Another Location

Airport or City:

Trip Planner

Search our weather history database for the weather conditions in past years. The results will help you decide how hot, cold, wet, or windy it might be!

Date:

Astronomy

Mar. 29, 2014 Rise Set
Actual Time 6:24 AM EDT 7:02 PM EDT
Civil Twilight 5:54 AM EDT 7:32 PM EDT
Nautical Twilight 5:19 AM EDT 8:07 PM EDT
Astronomical Twilight 4:42 AM EDT 8:44 PM EDT
Moon 5:34 AM EDT (3/29) 6:01 PM EDT (3/29)
Length of Visible Light 13h 37m
Length of Day
12h 38m
Waning Crescent, 2% of the Moon is Illuminated
Mar 29
Waning Crescent
Mar 30
New
Apr 7
First Quarter
Apr 15
Full
Apr 22
Last Quarter

Hourly Weather History & Observations

Time (EDT) Temp. Windchill Dew Point Humidity Pressure Visibility Wind Dir Wind Speed Gust Speed Precip Events Conditions
12:56 AM 34.0 °F - 33.1 °F 96% 29.95 in - Calm Calm - N/A   Unknown
1:56 AM 37.0 °F 33.3 °F 35.1 °F 93% 29.98 in - Variable 4.6 mph - N/A   Unknown
2:56 AM 37.9 °F 32.7 °F 34.0 °F 86% 30.01 in - Variable 6.9 mph - N/A   Unknown
3:56 AM 37.0 °F 28.9 °F 33.1 °F 86% 30.04 in - NW 12.7 mph 21.9 mph N/A   Unknown
4:56 AM 35.1 °F 27.9 °F 32.0 °F 89% 30.09 in - NW 9.2 mph 20.7 mph N/A   Unknown
5:56 AM 34.0 °F 31.0 °F 30.0 °F 85% 30.14 in - Variable 3.5 mph - N/A   Unknown
6:56 AM 34.0 °F 28.0 °F 28.9 °F 82% 30.19 in - Variable 6.9 mph - N/A   Unknown
7:56 AM 35.1 °F 26.9 °F 28.0 °F 76% 30.20 in - NNW 11.5 mph 20.7 mph N/A   Unknown
8:56 AM 35.1 °F 25.9 °F 28.0 °F 76% 30.22 in - NNW 13.8 mph - N/A   Unknown
9:56 AM 37.0 °F 29.3 °F 27.0 °F 67% 30.25 in - NNW 11.5 mph 19.6 mph N/A   Unknown
10:56 AM 37.9 °F 32.1 °F 27.0 °F 65% 30.28 in - NW 8.1 mph - N/A   Unknown
11:56 AM 37.9 °F 30.9 °F 26.1 °F 62% 30.27 in - NNW 10.4 mph - N/A   Unknown
12:56 PM 37.9 °F 30.5 °F 26.1 °F 62% 30.25 in - North 11.5 mph 16.1 mph N/A   Unknown
1:56 PM 39.0 °F 35.7 °F 25.0 °F 57% 30.26 in - Variable 4.6 mph 17.3 mph N/A   Unknown
2:56 PM 41.0 °F 35.8 °F 25.0 °F 53% 30.23 in - NW 8.1 mph - N/A   Unknown
3:56 PM 41.0 °F 39.0 °F 25.0 °F 53% 30.22 in - North 3.5 mph - N/A   Unknown
4:56 PM 41.0 °F 35.8 °F 25.0 °F 53% 30.22 in - NW 8.1 mph - N/A   Unknown
5:56 PM 39.9 °F 35.8 °F 26.1 °F 58% 30.23 in - NNW 5.8 mph - N/A   Unknown
6:56 PM 37.9 °F 34.4 °F 26.1 °F 62% 30.23 in - North 4.6 mph - N/A   Unknown
7:56 PM 35.1 °F 31.0 °F 27.0 °F 72% 30.24 in - NNE 4.6 mph - N/A   Unknown
8:56 PM 36.0 °F 32.1 °F 26.1 °F 67% 30.25 in - ENE 4.6 mph - N/A   Unknown
9:56 PM 34.0 °F 24.2 °F 21.9 °F 61% 30.22 in - East 15.0 mph - N/A   Unknown
10:56 PM 34.0 °F 28.0 °F 21.9 °F 61% 30.23 in - ENE 6.9 mph - N/A   Unknown
11:56 PM 34.0 °F 25.0 °F 21.0 °F 59% 30.22 in - East 12.7 mph - N/A   Unknown